FW3157 Weather Reports


Display with metric or nautical units.
time (UTC)temp
F
wind
direction
speed
MPH
gust
MPH
rain 1hr
in
rain 24hr
in
rain mn
in
humidity
%
barometer
mb
20260503173702 61 94 2.0 6.0 0.00 0.03 0.03 36 1017.6
20260503173202 62 89 2.0 5.0 0.00 0.03 0.03 36 1017.6
20260503172702 62 86 2.0 6.0 0.00 0.03 0.03 36 1017.5
20260503172202 62 74 3.0 6.0 0.00 0.03 0.03 35 1017.4
20260503171702 63 81 2.0 6.0 0.00 0.03 0.03 33 1017.4
20260503171202 63 82 1.0 3.0 0.00 0.03 0.03 31 1017.3
20260503170915 64 93 1.0 4.0 0.00 0.03 0.03 31 1017.2
20260503170200 64 82 2.0 4.0 0.00 0.03 0.03 30 1017.2
20260503160139 65 73 2.0 5.0 0.00 0.03 0.03 29 1017.0
20260503150854 64 302 2.0 7.0 0.00 0.03 0.03 30 1017.1
20260503150133 64 226 2.0 7.0 0.00 0.03 0.03 31 1017.1
20260503140123 64 217 1.0 6.0 0.00 0.03 0.03 35 1017.5
20260503130615 62 241 3.0 10.0 0.00 0.03 0.03 39 1017.9
20260503130116 62 248 4.0 11.0 0.00 0.03 0.03 39 1017.9
20260503110416 59 202 4.0 8.0 0.00 0.03 0.03 45 1018.7
20260503090153 56 275 5.0 10.0 0.00 0.03 0.03 58 1019.5
20260503090128 55 290 5.0 10.0 0.00 0.03 0.03 59 1019.5
20260503081140 55 289 7.0 13.0 0.00 0.03 0.03 60 1019.5
20260503080639 55 271 7.0 12.0 0.00 0.03 0.03 60 1019.5
20260503080139 55 283 7.0 15.0 0.00 0.03 0.03 60 1019.4
20260503072627 54 274 4.0 9.0 0.00 0.03 0.03 63 1019.5
20260503072120 53 304 5.0 9.0 0.00 0.03 0.03 64 1019.6
20260503071615 53 297 4.0 8.0 0.00 0.03 0.03 64 1019.5
20260503071109 53 302 5.0 8.0 0.00 0.03 0.03 66 1019.5
20260503070603 53 295 4.0 8.0 0.00 0.03 0.03 67 1019.4
20260503055053 50 264 3.0 6.0 0.02 0.03 0.03 73 1019.0
20260503054552 50 299 3.0 6.0 0.02 0.03 0.03 74 1019.0
20260503054053 50 354 3.0 7.0 0.02 0.03 0.03 74 1019.0
20260503053553 50 300 4.0 7.0 0.02 0.03 0.03 75 1019.1
20260503053052 50 355 4.0 8.0 0.03 0.03 0.03 75 1019.1
20260503052552 50 352 4.0 8.0 0.02 0.02 0.02 76 1019.1
20260503052314 50 10 2.0 7.0 0.02 0.02 0.02 76 1019.1
20260503052032 50 326 3.0 9.0 0.02 0.02 0.02 74 1018.9
20260503051316 50 339 4.0 9.0 0.02 0.02 0.02 74 1018.8
20260503050553 50 23 2.0 6.0 0.01 0.01 0.01 75 1018.7
20260503050052 51 40 1.0 6.0 0.01 0.01 0.01 75 1018.6
20260503045552 51 90 1.0 3.0 0.01 0.01 0.01 74 1018.5
20260503045052 51 90 1.0 3.0 0.01 0.01 0.01 73 1018.4
20260503044553 51 90 1.0 3.0 0.01 0.01 0.01 71 1018.3
20260503044052 51 90 0.0 2.0 0.01 0.01 0.01 71 1018.3
20260503043752 51 32 1.0 4.0 0.00 0.00 0.00 70 1018.3
20260503043654 51 34 1.0 4.0 0.01 0.01 0.01 70 1018.3
20260503042545 52 83 1.0 4.0 0.00 0.00 0.00 72 1018.3
20260503042043 52 79 0.0 4.0 0.00 0.00 0.00 74 1018.3
20260503041804 52 84 0.0 0.0 0.00 0.00 0.00 75 1018.3
20260503041043 52 84 0.0 1.0 0.00 0.00 0.00 76 1018.2
20260503040541 52 84 0.0 1.0 0.00 0.00 0.00 76 1018.1
20260503040041 52 84 1.0 3.0 0.00 0.00 0.00 75 1018.1
20260503035800 51 84 1.0 3.0 0.00 0.00 0.00 73 1018.1
20260503035041 51 84 0.0 2.0 0.00 0.00 0.00 73 1018.0
20260503034541 51 84 0.0 1.0 0.00 0.00 0.00 73 1017.9
20260503034038 51 84 0.0 1.0 0.00 0.00 0.00 73 1017.8
20260503033536 51 84 0.0 1.0 0.00 0.00 0.00 73 1017.8
20260503033034 51 84 0.0 2.0 0.00 0.00 0.00 73 1017.7
20260503032532 51 84 1.0 3.0 0.00 0.00 0.00 73 1017.7
20260503032030 51 84 1.0 3.0 0.00 0.00 0.00 73 1017.7
20260503032016 51 108 1.0 3.0 0.00 0.00 0.00 73 1017.6
20260503031030 50 109 1.0 2.0 0.00 0.00 0.00 73 1017.6
20260503030530 50 105 1.0 2.0 0.00 0.00 0.00 73 1017.6
20260503030031 50 105 1.0 3.0 0.00 0.00 0.00 73 1017.6
20260503025528 50 105 1.0 5.0 0.00 0.00 0.00 74 1017.7
20260503025026 50 105 1.0 5.0 0.00 0.00 0.00 75 1017.9
20260503024526 50 109 2.0 4.0 0.00 0.00 0.00 76 1017.9
20260503024019 50 101 2.0 4.0 0.00 0.00 0.00 76 1018.0
20260503023513 50 93 1.0 4.0 0.00 0.00 0.00 77 1018.0
20260503023007 50 103 0.0 1.0 0.00 0.00 0.00 78 1017.9
20260503022502 50 103 0.0 2.0 0.00 0.00 0.00 77 1018.0
20260503022431 50 103 1.0 2.0 0.00 0.00 0.00 77 1017.9
20260503021713 50 103 1.0 2.0 0.00 0.00 0.00 76 1017.8
20260503020944 50 103 1.0 2.0 0.00 0.00 0.00 75 1017.9
20260503020437 50 103 1.0 3.0 0.00 0.00 0.00 74 1017.8
20260503015931 50 103 1.0 3.0 0.00 0.00 0.00 74 1017.6
20260503015425 51 103 1.0 3.0 0.00 0.00 0.00 75 1017.6
20260503015148 51 103 1.0 2.0 0.00 0.00 0.00 75 1017.7
20260503014414 50 103 1.0 4.0 0.00 0.00 0.00 75 1017.5
20260503013907 50 103 2.0 4.0 0.00 0.00 0.00 75 1017.6
20260503013402 50 103 2.0 4.0 0.00 0.00 0.00 75 1017.8
20260503012856 50 132 1.0 4.0 0.00 0.00 0.00 76 1017.8
20260503012349 50 92 0.0 2.0 0.00 0.00 0.00 76 1017.9
20260503011843 50 92 0.0 2.0 0.00 0.00 0.00 76 1017.9
20260503011338 50 92 1.0 3.0 0.00 0.00 0.00 76 1017.9
20260503010832 50 92 1.0 4.0 0.00 0.00 0.00 75 1017.9
20260503010326 51 93 1.0 4.0 0.00 0.00 0.00 74 1017.8
20260503005820 51 101 1.0 2.0 0.00 0.00 0.00 75 1017.8
20260503005757 51 101 1.0 3.0 0.00 0.00 0.00 74 1017.8
20260503004809 51 101 3.0 6.0 0.00 0.00 0.00 75 1017.9
20260503004302 51 105 3.0 6.0 0.00 0.00 0.00 76 1017.9
20260503003755 51 108 3.0 8.0 0.00 0.00 0.00 77 1017.9
20260503003250 51 94 4.0 8.0 0.00 0.00 0.00 76 1017.9
20260503002743 51 72 4.0 7.0 0.00 0.00 0.00 75 1018.0
20260503002238 51 115 4.0 6.0 0.00 0.00 0.00 74 1018.1
20260503001732 51 84 2.0 6.0 0.00 0.00 0.00 72 1018.1
20260503001226 52 141 2.0 5.0 0.00 0.00 0.00 71 1018.1
20260503000942 52 141 2.0 5.0 0.00 0.00 0.00 70 1018.1
20260503000214 52 99 3.0 6.0 0.00 0.00 0.00 67 1018.2
20260502235712 52 87 3.0 6.0 0.00 0.00 0.00 66 1018.4
20260502235202 52 76 2.0 6.0 0.00 0.00 0.00 66 1018.4
20260502234655 52 117 1.0 5.0 0.00 0.00 0.00 69 1018.4
20260502234150 52 140 1.0 5.0 0.00 0.00 0.00 70 1018.5
20260502233643 51 74 1.0 5.0 0.00 0.00 0.00 72 1018.5
20260502233137 51 103 2.0 4.0 0.00 0.00 0.00 72 1018.7
20260502232632 51 103 3.0 7.0 0.00 0.00 0.00 72 1018.7
20260502232126 51 76 3.0 7.0 0.00 0.00 0.00 71 1018.6
20260502231620 51 141 3.0 7.0 0.00 0.00 0.00 71 1018.7
20260502231114 51 68 3.0 8.0 0.00 0.00 0.00 71 1018.6
20260502230608 51 91 1.0 7.0 0.00 0.00 0.00 72 1018.6
20260502230108 51 94 2.0 5.0 0.00 0.00 0.00 73 1018.6
20260502225824 51 61 3.0 9.0 0.00 0.00 0.00 73 1018.8
20260502225103 51 20 4.0 10.0 0.00 0.00 0.00 73 1018.9
20260502224604 51 98 4.0 10.0 0.00 0.00 0.00 73 1019.0
20260502224104 51 59 5.0 10.0 0.00 0.00 0.00 73 1019.1
20260502223602 51 79 5.0 10.0 0.00 0.00 0.00 73 1019.1
20260502223321 51 89 6.0 15.0 0.00 0.00 0.00 74 1019.1
20260502222602 51 74 7.0 15.0 0.00 0.00 0.00 73 1019.3
20260502222101 51 66 6.0 12.0 0.00 0.00 0.00 74 1019.4
20260502221602 52 86 7.0 16.0 0.00 0.00 0.00 73 1019.6
20260502221101 52 13 6.0 16.0 0.00 0.00 0.00 72 1019.6
20260502220602 53 124 4.0 11.0 0.00 0.00 0.00 73 1019.7
20260502215602 53 359 5.0 10.0 0.00 0.00 0.00 72 1019.6
20260502215551 53 82 4.0 9.0 0.00 0.00 0.00 74 1019.6
20260502214820 53 79 4.0 9.0 0.00 0.00 0.00 75 1019.5
20260502214056 53 96 3.0 6.0 0.00 0.00 0.00 76 1019.4
20260502213550 53 88 1.0 6.0 0.00 0.00 0.00 76 1019.4
20260502213044 53 91 0.0 2.0 0.00 0.00 0.00 76 1019.3
20260502212757 53 91 0.0 1.0 0.00 0.00 0.00 76 1019.2
20260502212032 53 91 0.0 1.0 0.00 0.00 0.00 76 1019.2
20260502211743 53 91 1.0 4.0 0.00 0.00 0.00 75 1019.3
20260502211020 53 91 1.0 4.0 0.00 0.00 0.00 75 1019.4
20260502210514 53 113 2.0 4.0 0.00 0.00 0.00 75 1019.4
20260502210008 53 113 2.0 4.0 0.00 0.00 0.00 75 1019.4
20260502205501 53 90 2.0 5.0 0.00 0.00 0.06 75 1019.5
20260502205150 53 87 1.0 4.0 0.00 0.00 0.06 76 1019.5
20260502205032 53 88 2.0 5.0 0.00 0.00 0.06 75 1019.5
20260502204203 53 287 0.0 2.0 0.00 0.00 0.06 76 1019.6
20260502203438 53 287 0.0 2.0 0.00 0.00 0.06 76 1019.7
20260502202932 53 287 0.0 1.0 0.00 0.00 0.06 76 1019.8
20260502202425 53 287 0.0 1.0 0.00 0.00 0.06 76 1019.7
20260502201920 53 287 0.0 1.0 0.00 0.00 0.06 76 1019.8
20260502201414 53 287 0.0 2.0 0.00 0.00 0.06 76 1019.7
20260502200908 53 287 1.0 3.0 0.00 0.00 0.06 76 1019.9
20260502200408 53 287 2.0 4.0 0.00 0.00 0.06 76 1019.9
20260502195906 53 287 2.0 4.0 0.00 0.00 0.06 76 1019.9
20260502195629 53 276 2.0 4.0 0.00 0.00 0.06 77 1019.9
20260502194902 53 261 3.0 6.0 0.00 0.00 0.06 77 1019.8
20260502194402 53 305 3.0 6.0 0.00 0.00 0.06 76 1019.9
20260502193902 54 285 4.0 9.0 0.00 0.00 0.06 76 1020.0
20260502193359 54 298 3.0 9.0 0.00 0.00 0.06 74 1020.0
20260502192900 54 269 2.0 8.0 0.00 0.00 0.06 69 1020.1
20260502192400 54 98 1.0 3.0 0.00 0.00 0.06 70 1020.0
20260502192125 54 98 1.0 2.0 0.00 0.00 0.06 69 1019.8
20260502191359 54 98 1.0 3.0 0.00 0.00 0.06 69 1019.7
20260502190856 54 98 2.0 4.0 0.00 0.00 0.06 69 1019.7
20260502190354 54 98 1.0 4.0 0.00 0.00 0.06 69 1019.6
20260502185853 54 98 1.0 3.0 0.00 0.00 0.06 70 1019.5
20260502185354 54 98 2.0 4.0 0.00 0.00 0.06 70 1019.5
20260502184854 54 98 2.0 4.0 0.00 0.00 0.06 69 1019.5
20260502184618 54 94 1.0 4.0 0.00 0.00 0.06 68 1019.4
20260502183853 54 94 1.0 3.0 0.00 0.00 0.06 67 1019.4
20260502183347 54 94 2.0 3.0 0.00 0.00 0.06 67 1019.2
20260502182845 55 94 2.0 4.0 0.00 0.00 0.06 67 1019.2
20260502182346 55 113 2.0 4.0 0.00 0.00 0.06 66 1019.2
20260502181844 55 116 2.0 4.0 0.00 0.00 0.06 65 1019.0
20260502181342 55 110 1.0 4.0 0.00 0.00 0.06 64 1019.0
20260502180841 56 90 1.0 4.0 0.00 0.00 0.06 62 1018.8
20260502180342 56 111 1.0 4.0 0.00 0.00 0.06 60 1018.8